GSAT0222 (GALILEO 26)

Last updated on Fri Jul 04 2025 00:02:32 GMT+0000 (Coordinated Universal Time)

1 43565U 18060B 25183.67954108 -.00000094 00000+0 00000+0 0 9999 2 43565 57.2706 351.2184 0002190 232.2344 127.7486 1.70475930 43253
UTC large
Height (km)
Speed (km/s)
/
Latitude / Longitude
Inclination (degrees)
Orbital Period (minutes)
Azimuth
Elevation
Range (km)
Doppler Factor

Next 0 passes for location: London (51.5072 / 0.1276)

Sorry there are no passes over London.